{"data":{"norad_id":46713,"intl_designator":"2020-073AV","name":"STARLINK-1815","alt_names":[],"object_type":"PAYLOAD","status":"ACTIVE","operator":null,"country":"US","launch_date":"2020-10-18","launch_site_code":"AFETR","launch_vehicle":null,"mission":null,"orbit_class":"UNKNOWN","rcs_meters":null,"size_class":null,"mass_kg":null,"dimensions":null,"purposes":["comms"],"wikipedia_slug":null,"has_3d_model":false,"image_url":null,"decayed_at":null,"tle_current":{"epoch":"2026-05-25T06:00:02.000160Z","epoch_age_seconds":53414,"freshness":"FRESH","line1":"1 46713U 20073AV  26145.25002315  .00163961  21178-4  48459-3 0  9991","line2":"2 46713  53.0357 178.7291 0008994   2.8023  57.3124 15.92229947  5801","mean_motion":15.92229947,"eccentricity":0.0008994,"inclination_deg":53.0357,"raan_deg":178.7291,"arg_perigee_deg":2.8023,"mean_anomaly_deg":57.3124,"bstar":0.00048459,"rev_number":580,"period_min":90.439198352799,"perigee_km":290.0412781912,"apogee_km":302.04679503986,"semimajor_km":6674.1810366155,"source":"CELESTRAK","updated_at":"2026-05-25T13:38:16.517467Z"}}}